www.pogodaiklimat.ru

Погода и климат >> Архив погоды >> Россия >> Дагестан >> Изберг


ПОГОДА в Изберге

  • Прогноз погоды в Изберге
  • Монитор погоды в Изберге
  • Климат города

АРХИВ ПОГОДЫ в Изберге

Время (UTC), дата Ветер
(напр.,м/с)
 
Видим.   Явления Облачность Т
(С)
Тd
(С)
f
(%)
Тe
(С)
Тes
(С)
Комфортность P
(гПа)
Po
(гПа)
Тmin
(С)
Tmax
(С)
R
(мм)
S
(см)
15 14.02 ЮВ 2 20 км 10/8 600 м
[Cu hum Ac trans]
-0.2 -2.4 85 -4 -4 1021.2 1023.5 +0.2
18 14.02 ЮЗ 1 20 км 3/0
[Ac trans]
-1.0 -2.9 87 -3 -3 1019.3 1021.6
21 14.02 Ю 4 н/о н/о -4.3 -6.5 85 -11 -11 1016.1 1018.4
00 15.02 ЮЗ 3 20 км 1/0
[Ac trans]
-5.7 -8.7 79 -11 -11 1013.7 1016.0
03 15.02 ЮЗ 2 20 км 1/1 600 м
[Cu hum]
-5.6 -8.1 83 -10 -10 1012.4 1014.7 -6.2 10
06 15.02 З 1 20 км 10/4 600 м
[Cu hum Ac As]
-0.6 -3.8 79 -3 -2 1013.2 1015.5
09 15.02 СЗ 4 20 км 10/3 600 м
[Cu hum Ac lent]
+0.3 -2.0 85 -5 -4 1013.3 1015.6
12 15.02 СЗ 3 20 км 10/1 600 м
[Cu hum Ac lent Cc]
+1.0 -2.3 79 -3 -2 1012.4 1014.7
15 15.02 Ю 2 20 км 9/1 600 м
[Cu hum Ac trans Ci fib]
-0.6 -2.3 88 -4 -4 1013.2 1015.5 +1.3
18 15.02 З 4 20 км 10/0
[Ac und Ci fib]
+0.1 -3.1 79 -5 -5 1015.6 1017.9
21 15.02 Ю 3 20 км ясно -3.3 -6.4 79 -8 -8 1015.6 1017.9
00 16.02 ЮЗ 4 20 км ясно -4.0 -7.7 75 -10 -10 1016.2 1018.5
03 16.02 СЗ 9-13
{14}
20 км 10/10 600 м
[Cb calv]
-1.1 -4.5 78 -9 -9 1018.3 1020.6 -4.9 10
06 16.02 СЗ 10-14
{15}
20 км {ливн. осадки} 9/6 600 м
[Cb calv Ac lent Ci fib]
-2.4 -5.5 79 -11 -11 1019.3 1021.6
09 16.02 СЗ 9-14
{18}
20 км 10/9 600 м
[Cb calv Ci fib]
-1.7 -6.2 71 -10 -10 1020.0 1022.3
12 16.02 СЗ 7-11
{14}
20 км 10/6 600 м
[Cb calv Ac trans Ci fib]
-0.5 -7.0 61 -7 -7 1020.8 1023.1
15 16.02 СЗ 4
{13}
20 км 10/8 600 м
[Cb calv Ac trans]
-0.7 -9.7 51 -6 -6 1022.9 1025.2 -0.4 0.0
18 16.02 СЗ 6 20 км 6/3 600 м
[Cu hum Ac trans Ci fib]
-2.1 -5.0 80 -9 -9 1025.1 1027.4
21 16.02 З 2 20 км 6/3 600 м
[Cu hum Ci]
-3.4 -6.8 77 -7 -7 1025.4 1027.8
00 17.02 СЗ 4 20 км 8/0
[Ac und Ci fib]
-3.6 -8.2 70 -10 -10 1026.0 1028.3
03 17.02 ЮЗ 1 20 км 8/1 600 м
[Cu hum Ac trans Ci fib]
-6.4 -10.5 73 -9 -9 1027.4 1029.8 -6.5 6
06 17.02 ЮЗ 2 50 км 6/0
[Ac trans Ci fib]
-2.6 -9.7 58 -6 -3 1029.0 1031.3 -7.0
09 17.02 СЗ 7-11
{12}
20 км 3/0
[Ac lent]
-1.8 -8.1 62 -9 -7 1028.8 1031.1
12 17.02 СЗ 4
{11}
20 км 3/3 600 м
[Cu hum Ac lent]
-0.3 -8.2 55 -5 -4 1028.7 1031.0
15 17.02 ЮЗ 2 20 км 4/4 600 м
[Cu hum]
-2.8 -7.4 71 -7 -7 1030.3 1032.6 -0.2
18 17.02 ЮЗ 4 20 км 3/3 600 м
[Cu hum]
-6.1 -9.1 79 -13 -13 1030.9 1033.3
21 17.02 ЮЗ 2 20 км ясно -6.8 -9.4 82 -11 -11 1030.7 1033.1
00 18.02 ЮЗ 2 20 км ясно -7.8 -10.3 82 -12 -12 1030.6 1033.0
03 18.02 ЮЗ 5 20 км 3/3 600 м
[Cu hum]
-8.1 -11.7 75 -16 -16 1030.5 1032.9 -8.7 5
06 18.02 ЮЗ 2 20 км ясно -3.4 -8.6 67 -7 -3 1031.4 1033.7
09 18.02 В 3 20 км ясно -0.2 -4.5 73 -5 +2 1029.7 1032.0
12 18.02 ЮВ 4 20 км 3/0
[Ac lent Ci fib]
+1.4 -2.6 75 -4 -2 1028.6 1030.9
15 18.02 Ю 2 20 км ясно -0.6 -2.7 86 -4 -4 1028.4 1030.7 +1.5
18 18.02 ЮЗ 4 20 км ясно -2.8 -6.5 76 -9 -9 1028.1 1030.4
21 18.02 ЮЗ 4 20 км ясно -3.8 -9.2 66 -10 -10 1027.1 1029.4
00 19.02 З 1 20 км 10/0
[Ac As]
-2.4 -5.9 77 -4 -4 1027.8 1030.1
03 19.02 ЮЗ 2 20 км 8/0
[Ac trans Ci fib]
-2.6 -7.0 72 -6 -6 1028.3 1030.6 -4.0 5
06 19.02 штиль 0 20 км 3/0
[Ac lent Ci sp]
+1.8 -6.8 53 +1 +6 1030.7 1033.0
09 19.02 СВ 2 20 км 4/0
[Ac lent Ci fib]
+2.7 -1.9 72 -0 +6 1030.8 1033.1
12 19.02 штиль 0 20 км 8/0
[Ci]
+4.0 -4.1 56 +4 +7 1030.4 1032.7
15 19.02 ЮЗ 1 20 км 10/0
[Cs]
+1.9 -0.8 82 0 0 1031.5 1033.8 +4.3
18 19.02 ЮЗ 4 20 км 6/0
[Ci fib]
-0.4 -2.4 86 -6 -6 1031.4 1033.7
21 19.02 ЮЗ 4 20 км ясно -0.6 -3.8 79 -6 -6 1030.2 1032.5
00 20.02 штиль 0 20 км ясно -1.0 -5.1 74 -2 -2 1029.1 1031.4
03 20.02 Ю 1 20 км 3/0
[Ci fib]
-1.9 -5.8 75 -4 -4 1028.7 1031.0 -1.9 1
06 20.02 ЮВ 3 50 км ясно +2.1 -1.8 75 -2 +1 1028.6 1030.9 -2.1
09 20.02 ЮВ 4 20 км ясно +4.0 +1.6 84 -0 +5 1026.9 1029.2
12 20.02 ЮВ 3 20 км ясно +4.3 +2.3 87 +1 +3 1024.9 1027.1
15 20.02 Ю 3 20 км 1/1 600 м
[Cu hum]
+3.6 +1.4 86 -0 -0 1023.9 1026.2 +4.4
18 20.02 ЮЗ 3 20 км 3/3 600 м
[Cu hum]
+0.8 -0.9 88 -4 -4 1023.0 1025.3
21 20.02 ЮЗ 2 20 км ясно +0.7 -0.9 89 -3 -3 1020.9 1023.2
00 21.02 ЮЗ 1 20 км ясно -0.2 -2.7 83 -2 -2 1018.7 1021.0
06 21.02 ЮВ 2 20 км 8/1 600 м
[Cu hum Ac trans Ci fib]
+3.0 -0.1 80 0 +2 1016.8 1019.1 -0.7
09 21.02 ЮВ 1 20 км 9/1 600 м
[Cu hum Cs]
+4.3 +1.0 79 +3 +10 1015.6 1017.9

 

Местоположение метеостанции Изберг (Дагестан, Россия): широта 42.53 долгота 47.92 высота над уровнем моря -16 м.

В архиве по умолчанию представлена погода в Изберге за последнюю неделю. Архивные данные за месяц целиком и за предыдущие месяцы, начиная с января 2011 года, Вы можете получить, выбрав интересующий диапазон дат из раскрывающегося списка и нажав кнопку "Ввод!".

Внимание! Время в таблицах - всемирное. Для получения местного времени необходимо прибавить поправку, которая в Изберге равна 3 ч.

Смотрите также архив погоды в соседних городах и на ближайших метеорологических станциях:

Погода в Сергокале (Дагестан, Россия) (22 км)
Погода в Дербенте (Дагестан, Россия) (60 км)
Погода в Махачкале (Дагестан, Россия) (65 км)
Погода в Куппе (Дагестан, Россия) (68 км)
Погода в Буйнакске (Дагестан, Россия) (73 км)
Погода в Гунибе (Дагестан, Россия) (79 км)
Погода в Кумухе (Дагестан, Россия) (80 км)
Погода в Касумкенте (Дагестан, Россия) (98 км)
Погода в Хунзахе (Дагестан, Россия) (100 км)
Погода в Ахты (Дагестан, Россия) (119 км)

Пояснения к столбцам:

Ветер - указаны скорость ветра в м/с - средняя за 10 мин, порывы в срок и между сроками (в фигурных скобках) и направление, откуда дует ветер: С - северный, СВ - северо-восточный, В - восточный, ЮВ - юго-восточный, Ю - южный, ЮЗ - юго-западный, З - западный, СЗ - северо-западный.
Видимость - горизонтальная дальность видимости в метрах или километрах. При видимости от 1 до 10 км при отсутствии осадков обычно наблюдается дымка, при ухудшении видимости до 1 км и менее - туман. В сухую погоду видимость может ухудшаться дымом, пылью или мглою.
Явления - указаны атмосферные явления, наблюдавшиеся в срок или в последний час перед сроком; фигурными скобками обозначены явления, наблюдавшиеся между сроками (за 1-3 часа до срока); квадратными скобками обозначены град или гололедные отложения с указанием их диаметра в мм.
Облачность - указаны через наклонную черту общая и нижняя облачность в баллах и высота нижней границы облаков в метрах; квадратными скобками обозначены формы облаков: Ci - перистые, Cs - перисто-слоистые, Cc - перисто-кучевые, Ac - высококучевые, As - высокослоистые, Sc - слоисто-кучевые, Ns - слоисто-дождевые, Cu - кучевые, Cb - кучево-дождевые. Подробнее классификацию облаков см. в Атласе облаков (PDF).
T - Температура воздуха - температура, измеренная на высоте 2 м над землей.
Td - Температура точки росы - температура, при понижении до которой содержащийся в воздухе водяной пар достигнет насыщения.
f - Относительная влажность воздуха - влажноcть воздуха, измеренная на высоте 2 м над землей.
Te - Эффективная температура - температура, которую ощущает одетый по сезону человек в тени. Характеристика душности погоды. При расчете учитывается влияние влажности воздуха и скорости ветра на теплоощущения человека.
Tes - Эффективная температура на солнце - температура, которую ощущает человек, с поправкой на солнечный нагрев. Характеристика знойности погоды. Зависит от высоты солнца над горизонтом, облачности и скорости ветра. Ночью, в пасмурную погоду, а также при ветре 12 м/с и более поправка равна нулю.
P - Атмосферное давление - приведенное к уровню моря атмосферное давление.
Po - Атмосферное давление - измеренное на уровне метеостанции атмосферное давление.
Tmin - Минимальная температура - минимум температуры воздуха на высоте 2 м над землей.
Tmax - Максимальная температура - максимум температуры воздуха на высоте 2 м над землей.
R - Количество осадков - Количество выпавших осадков, мм. При наведении курсора мыши на число - период времени, за который выпало указанное количество осадков.
S - Снежный покров - Высота снежного покрова, см. При наведении курсора мыши на число - состояние снежного покрова и степень покрытия местности в баллах.